STARLINK-1830, 46727

Orbit data source: Space-Track

STARLINK-1830, 46727 is a payload satellite owned by SpaceX/Seattle (US) in LEO that was launched on Sun, 18 Oct 2020 UTC via an FALCON 9 launch vehicle from the Air Force Eastern Test Range (AFETR). Payload-class satellites include a variety of spacecraft equipped with specific instruments for various scientific and technological missions. These include communications satellites like Starlink; space stations such as the ISS; scientific satellites like the Hubble; Earth observation satellites from companies like Planet Labs, Umbra, and HawkEye 360; GPS; miniature CubeSats for education and research; and military/defense satellites.

Loading next visibility...
Identifier
46727, 2020-073BK
Orbit
LEO
Country
Flag of USUS
Related business
Manufacturer
SpaceX/Seattle
Mission
Operational Commercial Communications
Bus & Motor
STARLINK, Unknown motor
Mass
260 kg wet, ~248 kg dry
Launch date (UTC)
2020-10-18 (5 years ago)
Launch vehicle
FALCON 9
Launch site
Air Force Eastern Test Range (AFETR)
Object type
Payload
Rocket body
Debris
Shape & HBR
Box + 1 Pan, 4.4 m
Radar Cross Section
13.562 m², Large (>1 m²)

Expand to show TLE details & history
Last TLE update: 1 day ago

TLE from 1 day ago
0 STARLINK-1830
1 46727U 20073BK  25257.07566077  .00001523  00000-0  12111-3 0  9997
2 46727  53.0539 289.4705 0001279  88.4958 271.6177 15.06397155270865
Epoch: 2025-09-14T01:48Z
TLE epoch observation values (Epoch: 2025-09-14T01:48:57.09Z)
Latitude
-0.00006°
Longitude
-91.06729°
Altitude
548.074 km
Speed
7.589 km/s
True Right ascension
19h 17m 52s
True Declination
0° 00' 00"
Sunlit
Object was in full shadow at epoch
Visualization orbit readout
Latitude
Unknown
Longitude
Unknown
Altitude
Unknown
Speed
Unknown
Apparent Right ascension
Unknown
Apparent Declination
Unknown
Sunlit
N/A
Visualization observer readout
Local Sidereal Time
05:46:54
Azimuth
Unknown
Elevation
Unknown
Doppler factor
Unknown
Orbital elements
Apogee altitude
548.377 km
Perigee altitude
546.605 km
Semi-major axis
6,925.628 km
Eccentricity
0.00013
Inclination
53.0539°
RAAN
289.4705°
Arg. of periapsis
88.4958°
True anomaly
271.60305°
Mean anomaly
271.6177°
Eccentric anomaly
271.61037°
Mean motion
3.76578 °/min
Orbital period
95.6 mins
BSTAR
0.00012111
Loading maneuver chart data...
Computing Atmospheric mass density...

Documentation

Showing up to 5 results
|